カタログに戻る

SL-12 DEB

運用中UNKNOWN
NORAD 24833·DEBRIS·🇷🇺 Russia

打ち上げ Jun 6, 1997 から Baikonur Cosmodrome

Loading…

次のパス (今後24時間)

TLE

最新Source: Space-Track

元期: Sep 14, 2026, 15:02 UTC

1 24833U 97028F   26257.62669332  .00000244  00000-0  31257-2 0  9995
2 24833  63.3168 122.9000 1096184  49.9863 333.5874 11.06829627182917

AllMySatでSL-12 DEBをリアルタイム追跡

Download on the App Store